Theta_e
330 329 329 327 328 328 327 327 327 327 326 324 321 319 318 317 317 318 319 314 310 314 317 316 316 314 311 307 304 305 306 303 301 300 300 301 301 302 303 304 306 307 308 308 308 309 309 309 309 309 309 309 308 308 308 308 308 308 308 307 306 306 304 303 301 299 298 298 297 296 296 296 296 296
330 330 329 328 327 327 327 327 327 326 326 325 323 321 318 317 316 316 318 316 311 312 313 312 314 312 309 306 304 306 306 304 302 301 301 302 303 304 305 306 308 308 309 309 309 309 309 309 309 309 309 309 309 309 309 309 308 308 308 308 307 307 305 304 303 301 300 299 298 297 296 296 296 295
331 330 329 327 327 327 327 326 326 326 326 325 323 321 318 316 315 314 315 313 311 312 313 311 311 311 308 305 304 306 306 304 302 301 301 303 304 306 307 308 308 309 309 309 309 309 309 309 309 309 309 309 309 309 309 309 309 308 308 308 308 307 307 306 305 304 302 300 298 297 296 296 295 295
331 330 329 328 327 327 327 326 326 326 325 325 325 322 317 314 314 314 313 311 309 311 313 312 311 310 308 307 306 306 306 304 303 302 301 303 305 307 308 308 309 309 309 309 309 309 309 309 309 309 309 309 309 309 309 308 308 308 308 308 308 307 307 307 306 305 303 301 300 298 297 296 296 295
330 330 329 328 328 328 328 327 326 325 325 326 325 324 321 316 313 312 312 310 309 309 311 311 311 309 308 308 307 306 306 305 303 302 302 302 304 306 307 308 309 309 309 309 309 309 309 309 309 309 309 309 309 308 308 308 308 308 308 307 307 307 307 307 306 305 305 303 302 300 298 297 296 295
329 329 329 329 328 329 328 327 326 326 326 326 326 325 325 321 316 315 313 310 309 310 310 310 310 309 309 309 309 307 306 306 305 304 303 303 303 305 306 307 308 308 308 308 309 309 309 309 309 309 309 308 308 308 308 308 307 307 307 307 307 307 307 307 306 306 305 305 304 303 300 298 297 296
329 329 329 329 330 329 329 328 327 327 327 327 326 325 325 323 321 320 317 312 310 310 310 310 310 309 309 310 311 309 307 306 306 306 306 305 304 304 305 306 306 307 307 308 308 308 308 308 308 309 309 308 308 308 308 308 307 307 307 307 306 306 306 306 306 306 306 305 305 304 303 301 298 296
328 329 329 329 330 330 329 329 329 329 328 327 326 325 325 324 322 323 319 313 310 311 310 311 311 310 310 311 311 310 308 306 307 307 307 307 306 305 305 306 307 307 307 307 308 308 308 308 308 308 308 308 309 309 308 308 308 307 307 306 306 306 306 306 306 306 306 306 305 305 304 302 299 297
328 329 329 329 329 330 330 329 329 329 328 326 325 325 325 324 322 323 319 312 310 311 311 311 311 310 311 311 311 311 309 307 306 307 307 307 307 307 307 308 309 309 308 308 308 308 308 308 308 308 308 308 308 309 309 309 308 308 307 307 306 306 305 305 305 305 305 305 305 305 304 303 300 297
329 329 329 329 329 330 330 329 329 328 326 326 325 325 324 323 322 323 319 312 310 311 310 311 311 311 311 311 310 311 310 308 307 306 306 307 308 309 309 310 310 310 310 310 309 309 309 309 309 309 308 308 308 308 308 308 308 308 308 307 306 306 306 305 305 305 305 305 305 304 304 303 301 298
329 329 329 329 329 330 329 329 328 326 325 325 325 324 323 323 322 322 318 312 310 311 310 310 311 311 311 311 311 311 310 308 307 307 306 307 308 309 310 310 311 311 311 311 311 311 311 311 310 310 309 309 308 308 308 308 308 308 308 308 307 306 305 305 305 304 304 304 305 304 303 303 301 298
329 329 329 330 330 330 329 328 327 326 325 325 325 323 322 321 321 320 316 312 311 311 311 311 312 311 311 311 311 310 309 307 307 308 307 308 310 310 311 311 311 311 311 311 311 311 311 311 311 311 311 310 310 309 309 309 308 308 308 308 308 306 305 305 304 304 304 304 304 304 303 303 301 299
328 328 328 330 329 329 328 327 326 326 323 323 323 322 321 320 319 318 315 313 312 312 312 311 311 311 311 311 311 310 309 309 310 310 309 308 310 310 310 311 311 311 311 311 311 311 311 311 311 311 311 311 311 310 310 310 310 309 309 309 308 308 306 305 304 304 303 303 303 303 303 303 302 300
328 328 328 329 328 328 328 327 326 325 322 321 321 320 319 318 316 316 315 314 313 314 313 313 312 311 311 311 311 310 310 310 311 310 309 309 310 310 309 310 311 311 310 310 310 311 312 311 311 311 312 312 312 311 311 311 311 310 310 310 309 309 308 306 304 304 304 303 303 302 302 302 302 300
327 327 326 327 326 326 325 325 325 324 322 321 320 320 319 318 316 316 316 315 315 316 316 316 315 314 314 313 313 312 312 313 312 311 310 310 309 309 308 309 311 312 311 310 310 311 312 312 311 312 312 312 312 312 312 312 311 311 311 310 310 310 308 307 306 305 304 302 302 302 301 302 301 300
325 325 324 325 324 322 320 320 320 321 320 320 319 318 318 317 317 317 317 317 317 317 318 318 316 316 316 317 318 317 316 316 316 315 314 313 312 312 311 311 312 313 314 313 312 313 314 313 312 313 313 314 313 313 313 312 312 312 312 311 311 310 309 308 306 305 304 303 302 301 301 301 301 299
323 322 322 321 319 316 315 315 315 316 316 316 315 315 315 315 315 315 315 315 314 314 314 314 313 314 314 315 317 317 316 317 318 318 318 318 318 317 316 316 316 317 318 317 314 313 314 314 313 313 314 314 314 314 314 314 313 312 312 312 312 311 310 309 307 306 305 303 302 301 300 300 300 299
320 319 318 317 315 314 314 315 316 316 317 317 316 317 317 317 317 316 316 316 316 316 316 315 315 316 316 317 317 318 318 318 319 319 319 319 319 319 318 318 318 318 318 318 316 313 315 316 314 314 316 316 315 315 315 315 314 314 313 313 312 311 310 309 307 306 305 303 302 300 300 300 299 298
317 317 317 317 317 317 318 319 319 320 320 320 320 320 320 320 319 319 318 318 318 318 317 317 317 318 318 318 319 319 319 319 319 318 318 319 318 318 318 318 318 318 318 319 317 315 316 318 317 316 318 318 318 317 317 316 316 316 315 312 310 309 308 308 307 306 305 304 302 300 299 299 298 296
316 316 317 317 318 318 319 319 319 319 319 319 319 319 320 320 320 319 319 318 318 318 318 317 317 317 317 317 318 317 317 317 316 316 316 316 315 314 314 314 315 316 316 317 317 316 317 318 318 318 318 318 318 318 318 317 317 316 315 312 312 312 311 311 310 307 305 303 301 299 298 297 296 295
315 315 316 317 317 317 317 316 317 317 317 317 316 315 315 315 315 314 313 312 312 312 312 312 311 311 311 311 311 311 309 308 307 308 309 310 309 309 312 313 313 313 313 314 315 316 317 317 317 318 318 318 318 318 318 318 317 317 316 315 315 315 314 314 311 307 303 301 299 298 298 297 296 295
314 314 313 314 315 315 313 313 313 314 314 314 312 310 309 308 307 307 306 306 305 304 304 304 303 303 303 303 304 303 303 302 301 301 302 302 303 306 310 312 312 312 312 313 314 316 316 317 317 317 317 317 317 317 317 317 317 316 316 315 315 314 314 314 311 305 301 299 298 298 298 297 296 296
311 311 310 310 311 310 309 308 308 309 309 308 306 305 304 302 301 300 301 302 302 302 302 301 301 301 301 302 302 302 303 303 302 302 302 303 304 305 308 309 310 311 311 312 313 314 315 315 315 316 316 316 315 315 315 315 315 315 315 314 314 314 314 313 308 303 300 298 297 298 297 296 296 296
308 308 308 307 307 306 305 304 304 304 304 303 301 300 299 299 299 299 300 301 301 302 302 303 303 303 303 304 304 304 305 305 305 305 305 305 305 305 305 306 308 309 309 310 311 312 312 312 313 314 314 314 313 313 313 313 314 314 314 313 313 313 313 311 306 302 300 298 297 298 297 296 296 295
306 306 306 305 304 303 302 301 300 300 299 299 298 298 299 300 301 302 302 303 303 303 304 304 304 303 303 304 304 304 304 304 304 304 304 304 304 303 303 303 304 305 306 306 308 310 311 311 312 313 313 313 312 313 313 312 312 312 312 312 311 311 311 310 306 302 299 297 298 298 297 296 296 295
303 302 301 301 300 299 299 299 299 299 299 300 300 301 303 303 304 304 303 304 304 304 304 303 302 302 302 302 302 302 302 302 302 302 303 303 302 302 301 300 301 301 302 303 305 307 309 310 311 312 313 312 312 312 311 311 311 311 310 310 310 309 307 306 303 300 298 297 297 297 297 296 296 295
300 299 298 298 298 299 299 300 301 301 302 303 303 304 304 304 304 303 303 303 303 303 302 301 301 300 300 300 300 300 300 300 300 301 301 301 301 301 301 300 300 300 300 301 302 305 307 308 309 310 311 311 311 310 310 309 309 308 308 307 307 306 304 302 301 300 298 297 298 297 296 296 296 295
298 298 299 299 300 301 301 302 302 303 303 303 304 304 303 303 303 303 302 302 301 301 300 300 299 299 299 299 299 299 299 299 299 300 300 300 300 300 300 300 300 299 299 299 301 303 305 306 307 307 309 310 310 309 308 307 307 307 306 305 304 303 302 300 299 299 298 298 298 297 296 296 295 295
299 300 301 301 302 302 302 302 302 302 302 302 302 302 301 301 301 301 301 301 300 300 299 299 298 298 298 298 297 298 298 298 299 299 299 299 299 299 299 299 299 299 298 298 299 301 303 304 305 305 306 307 308 307 306 306 305 305 304 304 303 302 301 299 298 298 298 298 298 297 297 296 296 295
301 301 301 301 301 301 301 301 301 300 300 300 300 300 300 300 300 300 300 300 299 299 298 298 297 297 297 297 297 297 298 298 297 297 297 297 297 297 297 297 297 297 297 297 298 300 301 302 303 304 304 304 305 305 304 304 304 304 304 303 302 302 301 299 298 298 299 299 298 297 297 297 296 295
301 301 301 301 301 300 300 300 300 300 300 300 300 300 299 299 299 299 299 298 298 297 297 296 296 296 296 296 296 296 296 296 295 295 295 295 296 296 296 296 296 297 297 297 297 298 299 301 302 302 303 302 302 303 303 302 303 303 304 303 302 301 300 299 298 298 300 299 298 298 298 297 296 295
300 300 300 300 300 300 300 300 299 299 299 299 299 298 298 298 298 297 297 297 296 296 295 295 295 295 295 295 294 294 294 294 294 294 294 295 295 295 295 295 295 296 297 297 297 298 298 299 300 301 301 301 301 302 301 301 301 302 302 302 301 300 300 300 300 300 300 299 298 298 298 297 296 296
300 300 300 300 299 299 299 299 298 298 298 298 298 297 297 297 296 296 296 296 295 295 294 294 294 293 293 293 293 293 293 293 293 294 294 295 295 295 295 295 296 296 297 297 297 298 298 299 299 299 300 300 300 301 300 300 300 300 300 301 300 300 300 301 301 301 300 299 298 298 297 297 296 296
300 299 299 299 299 298 298 298 297 297 297 297 296 296 296 296 295 295 295 294 293 293 293 292 292 292 292 292 292 292 292 292 293 293 294 294 294 295 295 295 296 296 296 297 297 298 298 298 298 298 299 299 299 299 299 299 299 299 299 299 299 299 300 300 300 300 299 299 298 297 296 296 296 296
299 299 298 298 298 297 297 297 297 296 296 296 295 295 295 295 294 294 293 292 292 292 291 291 291 291 291 291 292 292 292 292 293 293 293 293 294 294 295 295 295 296 296 296 297 298 298 299 298 298 298 298 298 298 298 298 298 298 298 298 298 299 299 299 299 298 298 298 297 296 296 296 296 296
298 297 297 297 296 296 296 296 295 295 295 295 295 295 294 294 293 293 292 291 291 291 291 291 291 291 291 291 292 292 292 292 292 293 293 293 294 294 294 295 295 296 296 297 297 297 298 298 297 296 296 295 296 297 297 296 297 297 297 297 297 297 297 297 297 296 296 296 296 296 296 295 295 295
296 296 296 295 295 295 295 295 294 294 294 294 294 294 293 292 292 291 291 291 291 291 291 291 291 291 291 291 291 291 292 292 292 292 293 293 293 293 294 294 295 295 296 296 296 296 296 296 296 296 295 295 295 297 296 296 296 296 296 296 296 296 296 296 295 295 296 296 295 295 295 295 295 295
296 295 295 295 295 295 294 294 294 294 293 293 293 292 292 291 291 291 291 291 290 290 290 291 290 291 291 291 291 291 291 292 292 292 292 292 293 293 292 293 293 294 294 294 294 294 295 294 294 295 294 294 295 296 295 295 295 296 295 296 296 295 295 295 295 295 295 295 294 294 295 295 295 295
295 295 294 294 294 294 294 294 293 293 293 292 292 291 291 291 291 290 290 290 290 290 290 290 290 290 291 291 291 291 291 291 291 292 292 292 292 292 292 292 292 293 293 293 293 294 294 294 293 294 293 293 293 294 294 294 294 294 295 295 295 295 295 295 295 295 294 294 294 294 294 294 294 294
294 294 294 294 294 294 293 293 293 293 292 292 291 290 290 290 290 290 290 290 290 290 290 290 290 290 290 291 291 291 291 291 291 291 292 292 292 292 292 292 292 292 292 293 293 293 293 293 293 293 293 293 293 293 293 293 293 294 294 295 295 295 295 295 295 294 294 294 294 294 294 294 294 294
293 293 293 293 293 293 293 293 293 292 292 291 290 290 290 290 290 290 290 290 290 290 290 290 290 290 290 290 290 291 291 291 291 291 291 292 292 292 292 292 292 292 292 292 292 292 292 292 292 293 293 293 293 293 293 293 293 293 294 294 294 294 294 294 294 294 294 294 294 294 293 293 293 293
292 292 292 293 293 293 293 292 292 292 292 291 291 290 290 290 290 290 290 290 290 290 290 290 290 290 290 290 290 290 291 291 291 291 291 291 292 292 292 292 292 292 292 292 292 292 292 292 292 293 293 293 293 293 293 293 293 293 293 293 293 293 293 294 294 294 294 294 294 293 293 292 292 292
291 291 292 292 293 292 292 292 292 292 292 292 291 290 290 290 290 290 290 290 290 290 290 290 290 290 290 290 290 290 290 290 291 291 291 291 291 291 291 291 292 292 292 292 292 292 292 293 293 293 293 293 293 293 293 293 293 293 292 292 293 293 293 293 293 293 293 293 292 292 292 292 291 291
291 291 291 292 292 292 292 292 292 292 292 291 291 291 290 291 291 290 290 290 290 290 290 290 290 290 290 290 290 290 290 290 290 290 290 290 290 291 291 291 291 291 292 292 292 293 293 293 293 293 293 293 293 293 293 293 293 293 292 292 292 293 293 293 293 293 292 292 292 292 292 292 292 291
290 290 291 292 292 292 292 292 292 292 292 291 291 290 290 290 290 290 290 290 290 290 290 290 290 290 290 290 290 290 290 290 290 290 290 290 290 290 291 291 291 291 291 292 292 292 293 293 293 293 293 293 293 293 293 293 293 293 293 292 292 293 293 293 293 293 292 292 292 292 292 292 292 291
Wind_Speed
23 23 20 18 20 19 18 21 22 21 23 25 26 26 25 20 9 3 5 4 7 16 19 18 19 17 13 13 15 14 13 14 15 14 14 13 13 13 13 13 13 12 12 12 11 10 9 9 8 7 6 5 5 4 4 3 3 4 4 4 5 5 5 5 6 6 7 7 7 8 8 9 9 9
21 22 21 19 19 20 20 21 21 22 22 22 23 24 25 26 20 11 6 4 11 20 20 17 19 18 16 16 16 15 14 15 15 15 15 14 14 14 14 13 13 12 12 11 10 9 8 7 6 5 5 4 3 2 1 1 0 1 1 2 2 3 4 4 4 5 6 6 7 7 8 9 9 9
22 21 21 20 18 18 20 21 20 22 22 20 20 22 24 26 23 21 14 5 11 24 23 19 19 18 18 18 17 16 15 15 15 15 15 15 15 15 14 14 13 12 12 11 10 9 8 7 7 6 5 5 4 4 3 4 3 3 2 2 3 3 3 4 4 5 6 7 8 8 9 9 10 9
23 22 21 20 17 17 18 20 20 21 22 20 18 20 24 24 19 19 19 10 11 23 25 22 21 18 18 19 18 18 17 17 17 16 16 16 16 16 15 15 14 13 12 11 11 10 9 9 8 8 8 8 7 7 6 7 6 6 5 5 5 5 5 5 5 5 6 6 7 8 8 9 10 10
22 22 21 20 18 17 17 19 19 20 20 19 19 19 20 20 17 17 18 12 10 17 21 21 21 20 20 20 19 19 19 19 19 17 17 18 18 18 17 17 16 15 14 14 13 12 12 12 12 11 11 11 10 10 9 9 9 9 9 8 8 7 7 7 7 7 7 7 7 8 8 9 10 10
21 21 21 20 18 17 17 18 18 19 18 17 19 20 17 17 18 17 18 16 15 16 19 20 21 22 22 21 19 21 21 20 20 19 19 19 20 19 19 18 18 17 17 16 15 15 14 14 15 15 14 14 14 13 12 12 12 11 11 11 11 10 10 9 9 9 9 9 9 9 9 10 10 11
21 20 20 20 19 18 18 18 17 17 17 16 19 21 17 16 17 16 18 20 21 21 19 20 22 24 24 22 20 21 22 21 21 21 20 20 21 22 22 21 20 19 20 19 19 18 18 18 18 18 17 17 17 16 15 15 15 15 14 14 14 13 12 12 11 11 11 11 10 10 10 11 11 12
21 20 21 21 20 19 19 18 17 16 16 16 18 19 16 16 16 14 16 22 25 24 22 22 24 25 25 23 20 21 23 23 23 22 21 22 23 23 23 23 22 22 22 23 22 22 22 21 21 21 20 20 20 19 18 17 17 17 17 17 17 17 16 15 14 14 13 13 12 12 11 11 12 12
20 20 21 21 21 20 18 17 17 16 16 15 16 17 16 16 15 12 13 22 27 26 25 25 24 24 25 24 22 22 23 25 26 24 23 23 23 24 24 25 24 24 25 26 26 26 26 26 26 25 25 24 24 23 22 21 20 20 20 20 20 19 19 18 17 16 15 15 14 13 12 12 12 12
18 19 19 21 21 19 17 18 17 16 16 14 13 15 15 15 13 11 12 21 26 27 27 26 23 24 26 25 24 24 24 26 28 28 26 26 26 26 27 27 26 26 27 28 28 29 29 29 29 29 29 29 28 28 26 25 24 23 23 23 23 22 22 21 20 19 18 17 16 15 14 13 12 12
17 18 19 20 20 18 17 17 16 15 15 14 12 13 13 13 12 11 14 21 25 26 26 24 23 25 27 26 24 23 25 26 27 27 27 28 29 29 29 30 29 27 28 28 29 30 31 31 32 32 32 32 32 32 31 30 28 27 27 26 26 26 25 24 23 22 20 19 18 16 15 14 13 12
15 16 19 19 19 18 17 15 14 12 11 12 12 11 10 11 11 12 19 24 24 24 24 23 23 24 26 26 22 19 22 25 25 27 29 29 30 30 30 31 30 29 30 29 29 30 31 32 33 34 35 35 35 35 34 34 33 31 30 29 29 29 28 27 26 24 23 21 20 18 16 15 13 12
13 15 19 19 17 18 16 14 13 10 6 8 11 10 9 10 10 14 21 24 23 23 23 23 22 20 22 26 23 19 22 26 27 29 29 30 32 31 31 32 32 32 32 32 32 32 32 33 34 35 36 36 36 37 37 37 36 34 33 32 31 31 30 29 28 27 25 24 22 20 18 16 14 13
14 15 17 18 17 17 16 14 13 10 7 7 9 8 5 6 11 18 22 22 21 21 20 20 21 20 22 26 26 24 25 27 28 27 27 30 32 28 26 30 33 33 33 34 35 34 33 35 36 37 37 37 37 38 39 39 38 36 34 33 32 32 32 31 30 29 27 26 24 21 19 16 15 13
16 15 14 14 14 15 16 16 14 12 9 9 9 8 8 7 10 15 17 17 17 16 14 13 16 18 18 17 18 19 19 19 21 23 23 27 29 24 20 22 27 30 30 31 34 34 33 35 38 37 36 35 35 37 37 37 37 36 34 34 34 34 34 33 32 31 29 28 26 23 20 17 15 14
17 15 13 13 13 13 14 15 16 15 13 11 10 10 11 12 11 11 11 11 11 11 10 9 9 9 8 5 6 7 6 6 8 11 13 17 21 22 21 20 23 24 22 22 29 33 31 32 35 35 32 31 32 33 33 33 34 35 35 35 35 35 36 35 34 32 31 29 27 25 22 18 15 14
18 16 15 15 16 16 16 16 15 15 15 14 13 12 12 12 11 10 9 9 9 8 8 9 9 6 4 4 3 2 2 3 4 5 7 9 11 14 16 17 18 17 15 15 21 27 27 28 31 32 30 29 30 31 31 31 33 34 35 36 36 36 37 37 35 34 32 31 29 26 23 19 16 14
19 18 18 18 17 17 17 16 16 16 15 15 15 14 13 12 11 11 9 9 8 7 6 7 7 5 3 3 2 1 2 3 4 5 7 8 9 10 12 13 15 15 15 16 16 20 22 24 27 30 29 28 30 31 30 31 32 33 35 37 37 38 38 38 36 35 34 32 30 27 23 19 16 14
21 20 20 20 19 18 17 16 15 15 15 15 15 14 13 11 10 10 9 8 7 6 6 6 6 4 3 2 2 3 4 5 7 9 10 12 14 15 16 18 19 18 18 17 16 19 22 22 25 30 29 28 31 31 30 32 32 33 36 37 36 35 35 35 36 36 34 33 32 28 23 19 15 12
21 20 19 20 19 18 17 15 14 13 13 13 14 13 12 10 9 8 7 6 5 4 4 4 4 3 3 4 5 7 8 9 11 12 14 15 17 18 20 21 22 21 18 17 16 20 23 21 24 29 29 29 31 31 31 32 32 34 36 34 33 33 31 34 38 38 37 35 31 26 20 15 11 10
20 19 17 17 17 16 15 13 11 10 9 10 11 10 9 8 7 6 5 4 2 2 2 3 4 5 6 7 8 9 11 12 14 15 15 16 17 18 17 17 21 23 22 21 20 22 23 22 24 28 29 29 30 30 31 30 30 31 31 30 30 31 31 35 39 37 36 35 29 24 19 12 9 8
21 19 17 15 14 14 12 10 8 7 6 6 6 6 5 4 3 2 2 2 2 3 4 4 5 6 7 8 9 9 10 11 12 12 12 12 14 16 14 15 20 23 20 17 17 20 24 23 23 25 26 26 27 28 27 27 27 28 29 30 30 30 33 38 37 34 34 33 27 23 19 14 12 9
20 18 16 14 12 11 10 8 6 5 4 3 4 3 3 4 5 5 5 5 6 6 6 7 7 7 8 8 8 7 7 7 7 7 7 7 9 12 13 14 16 14 11 11 13 18 23 23 23 22 19 16 18 20 19 20 23 24 25 26 27 28 32 35 33 30 30 29 24 19 16 14 14 11
19 16 14 12 11 9 8 6 5 5 4 4 4 4 4 5 6 6 6 6 7 7 7 7 6 6 6 6 6 6 6 7 8 7 8 9 10 11 13 14 12 10 10 13 15 18 23 23 23 24 19 12 13 19 21 20 21 23 23 24 25 26 29 32 31 28 26 26 25 21 17 15 14 11
17 14 12 10 9 7 6 5 5 5 5 5 5 6 7 8 9 8 8 8 8 8 9 8 7 7 8 8 9 10 10 11 11 11 10 11 12 13 14 16 15 15 16 16 15 16 20 22 22 23 22 18 18 22 25 24 25 26 26 26 25 25 27 29 29 25 23 26 26 22 19 18 15 13
15 13 10 9 8 7 7 7 7 7 7 8 9 10 11 10 10 10 10 9 9 9 9 10 10 11 11 12 12 12 12 12 12 12 12 12 13 14 14 15 17 19 20 19 16 16 18 20 20 21 21 20 20 22 24 24 25 25 23 22 22 22 23 23 23 21 25 29 25 21 20 19 17 16
13 12 11 11 11 11 11 11 11 10 10 10 11 11 11 10 10 10 9 9 9 10 11 11 13 14 14 14 13 13 13 13 13 13 13 14 15 17 18 18 18 20 22 21 18 16 16 19 19 19 21 21 21 19 19 18 19 19 18 18 17 17 17 18 19 22 28 29 24 21 21 20 18 18
13 13 14 14 14 14 14 14 14 13 13 12 12 12 11 10 9 9 9 10 10 11 12 13 14 14 14 14 14 14 13 13 14 14 15 16 17 19 20 21 21 22 23 22 19 16 16 18 19 19 19 20 18 15 14 15 17 18 19 18 16 16 15 16 19 24 28 27 23 23 23 22 21 21
14 14 15 14 14 15 16 17 18 18 18 16 15 13 12 11 10 10 10 10 10 12 14 13 13 13 13 13 14 14 14 15 17 18 19 20 21 22 23 24 24 23 22 21 19 15 14 16 18 19 17 16 16 16 15 16 19 20 20 19 18 16 15 17 21 25 27 25 23 23 22 22 23 24
15 15 16 17 18 19 19 19 19 19 17 15 14 13 11 11 11 10 10 10 11 13 13 12 12 13 13 14 15 16 18 19 20 21 22 23 23 24 25 26 26 24 21 19 17 15 14 14 16 17 16 14 15 16 16 16 18 19 20 19 17 13 13 17 22 25 25 23 21 20 20 21 22 23
19 20 21 21 20 20 19 18 17 16 14 13 13 12 11 11 11 11 10 10 11 12 12 12 13 13 14 16 17 18 18 18 18 18 18 19 20 20 21 23 24 24 21 18 16 15 14 14 14 14 14 14 15 15 14 14 15 17 18 18 17 13 11 16 24 26 23 21 19 18 18 21 24 23
23 22 21 20 19 18 17 17 16 15 14 14 14 13 12 12 12 11 11 11 12 13 13 13 13 14 14 15 15 15 15 15 16 16 16 17 17 17 17 19 21 23 22 20 17 15 14 13 13 12 12 13 14 15 14 14 14 16 17 17 17 16 12 15 24 26 22 21 21 18 17 20 24 23
21 19 18 18 17 16 16 17 16 15 15 14 14 13 13 12 12 12 12 13 14 14 13 13 13 13 13 13 14 14 15 15 16 17 18 18 18 17 16 16 19 20 21 22 21 17 14 12 12 11 11 12 13 13 12 13 14 15 14 13 15 16 14 14 22 25 22 22 21 17 17 20 21 19
18 18 19 18 17 16 16 16 16 15 14 14 14 13 13 12 13 13 14 14 14 13 12 13 13 13 14 14 15 16 17 17 18 19 19 19 19 18 16 16 17 18 19 20 20 16 13 12 12 11 11 12 12 11 10 11 12 13 13 12 13 15 14 14 19 22 21 21 20 18 18 18 17 15
19 20 20 20 18 17 16 16 15 14 13 13 13 12 12 13 13 14 14 13 12 12 13 14 14 15 15 15 16 17 18 18 19 19 20 20 20 20 19 18 18 18 17 18 17 14 12 12 13 13 12 11 10 8 8 8 8 9 10 10 11 13 14 15 18 20 19 19 20 19 16 14 13 13
22 20 20 20 18 17 17 16 15 14 13 13 13 11 12 13 13 13 13 13 13 14 15 15 15 16 16 16 16 17 17 18 19 20 21 21 21 20 20 20 18 17 16 15 14 13 11 11 12 11 11 10 8 6 6 6 6 6 7 8 10 12 15 16 17 18 18 18 17 15 14 13 12 12
22 20 20 19 17 17 17 15 14 14 13 13 12 11 11 12 12 12 12 13 13 14 15 16 16 17 17 17 17 17 18 18 19 19 20 20 19 19 20 20 18 17 15 13 12 12 10 9 8 8 7 7 5 3 5 6 4 4 5 9 13 15 18 19 18 17 15 14 11 11 12 12 10 10
21 19 19 18 17 16 16 14 13 13 14 13 12 11 11 11 12 12 13 14 15 16 16 17 18 18 18 19 19 18 18 18 18 19 19 19 19 18 18 18 17 16 15 14 13 13 13 12 12 12 10 6 3 3 4 4 3 2 4 10 15 18 18 18 17 15 13 12 10 9 9 8 6 7
18 18 18 18 17 16 15 13 13 14 14 13 13 12 12 13 14 15 16 17 17 18 18 18 19 18 19 19 18 17 17 18 18 19 19 18 18 18 17 17 16 15 14 15 14 14 14 14 14 15 14 10 6 4 3 2 3 4 5 10 14 15 14 11 10 11 11 10 10 8 6 5 3 4
16 16 16 16 16 16 15 15 15 14 13 13 14 15 16 18 18 19 19 19 18 19 19 19 18 17 17 17 17 18 18 19 18 18 18 18 17 16 16 15 15 14 14 14 14 13 13 13 13 13 12 9 6 4 1 3 4 5 6 8 9 8 5 3 5 9 10 8 7 6 5 3 3 4
14 14 15 15 15 14 14 15 14 13 12 13 15 17 18 19 19 19 19 19 18 18 18 17 17 16 16 17 18 19 19 19 19 18 17 17 17 15 15 15 15 15 14 14 13 13 12 11 10 10 8 5 3 3 1 2 3 3 4 5 5 4 4 4 4 6 7 7 7 7 7 4 4 6
12 12 13 14 14 13 12 13 12 12 12 13 14 14 15 16 17 17 16 16 16 15 15 15 16 17 18 18 18 19 19 18 18 18 18 17 17 16 16 15 15 15 14 13 13 12 11 9 9 8 7 6 5 5 4 2 2 1 1 3 5 6 6 6 6 5 5 6 6 6 6 5 4 6
9 9 11 12 13 12 11 11 11 11 11 11 12 12 12 12 13 13 12 12 11 11 12 14 16 16 17 17 16 16 17 17 16 17 17 17 16 16 16 15 14 14 14 13 12 11 10 9 9 8 6 6 7 7 7 5 3 2 1 2 5 6 5 5 5 5 4 4 4 4 4 3 2 4
8 10 12 13 12 12 11 10 10 10 10 10 10 10 9 9 9 9 10 10 10 10 11 13 14 15 15 15 14 14 14 14 15 15 16 15 15 15 15 15 15 15 15 14 13 13 11 10 10 9 8 8 8 9 9 6 2 3 1 1 5 6 4 3 3 3 3 5 6 5 4 2 1 1
9 11 14 14 12 12 10 9 9 9 10 9 8 7 7 7 7 8 10 11 11 11 11 12 13 13 12 12 13 13 13 14 14 14 14 14 14 14 14 14 16 17 17 15 15 15 14 12 10 10 10 9 8 8 9 7 1 3 2 1 2 3 2 0 0 1 3 4 4 4 3 1 1 1
Wind_Direction
204 203 202 204 203 199 194 193 193 194 193 188 182 178 172 166 156 149 177 165 165 183 187 186 192 197 197 195 189 189 192 187 182 180 180 178 173 169 169 168 166 163 159 155 152 151 149 149 147 145 141 136 130 122 113 105 92 82 73 65 58 52 46 36 28 21 14 10 4 356 351 351 351 349
202 202 202 204 206 203 198 195 195 194 193 189 189 190 185 177 173 168 171 178 177 183 190 191 191 193 195 194 191 192 195 192 188 186 185 184 179 176 175 175 174 171 169 168 167 167 168 170 172 173 175 173 169 169 176 187 130 66 36 31 29 23 21 18 12 5 360 358 356 353 348 346 344 342
200 199 200 202 204 204 202 198 197 197 193 187 188 196 193 186 182 176 166 161 189 190 193 197 197 195 191 190 192 194 195 196 193 190 190 189 186 185 183 183 184 183 183 185 186 189 192 198 204 209 216 222 226 237 249 257 264 272 287 309 321 331 338 339 343 346 347 346 345 345 343 339 338 335
198 198 199 202 201 201 201 199 199 201 200 194 192 197 197 193 192 184 174 168 192 196 198 200 200 198 192 190 193 195 195 197 198 195 194 194 193 193 192 192 194 195 198 201 205 210 215 220 227 233 239 244 247 253 259 262 266 270 276 283 289 295 302 308 315 322 327 331 332 333 333 332 332 330
199 199 200 201 200 200 202 202 202 203 204 203 200 198 198 200 203 198 188 180 182 193 200 203 202 199 194 192 195 197 196 197 199 198 198 201 202 202 202 203 205 207 210 214 218 223 227 231 234 237 241 246 249 253 258 261 264 269 275 279 280 280 284 289 295 300 306 313 317 321 324 325 326 326
200 202 203 202 201 202 203 202 204 205 205 206 204 202 200 199 202 206 203 192 182 188 200 204 203 199 196 196 197 200 201 200 200 201 203 206 209 211 212 213 215 217 219 222 224 228 232 234 236 238 241 244 248 252 255 259 262 267 272 274 274 275 276 279 283 287 291 298 304 311 318 322 322 322
202 204 205 204 203 204 206 205 207 211 212 210 208 206 204 203 205 212 211 200 191 189 195 204 205 198 196 200 202 203 205 205 204 206 209 212 213 215 218 221 224 226 227 229 231 234 237 239 240 242 245 247 250 252 255 258 262 266 268 270 271 272 272 273 274 277 281 287 293 301 309 315 317 317
204 204 204 204 203 204 207 209 210 217 220 216 211 209 211 213 217 224 217 207 200 192 190 202 209 202 199 203 207 206 207 209 211 212 215 217 218 219 222 226 229 231 234 237 239 242 244 246 247 248 249 251 252 253 255 258 260 263 265 267 269 270 270 270 269 270 274 277 283 290 297 303 307 309
200 199 199 200 201 204 208 210 214 219 220 217 214 216 219 218 224 241 228 207 201 196 195 201 205 204 202 204 208 210 210 210 213 216 219 222 224 226 227 230 233 235 238 241 244 246 249 250 251 251 252 253 253 254 255 257 260 262 263 264 267 268 268 267 266 266 268 271 275 279 285 291 297 300
197 195 195 197 200 203 206 209 214 218 217 215 217 219 221 219 228 252 237 206 198 200 202 201 200 202 205 207 210 213 213 212 213 216 220 225 228 230 232 235 238 240 242 244 246 249 251 253 254 255 255 255 256 256 256 257 259 261 263 264 265 266 267 266 264 263 263 265 268 271 275 281 288 293
198 198 195 196 201 204 207 209 210 213 216 219 223 221 220 225 238 251 232 208 199 199 200 198 200 202 205 209 214 216 216 217 218 218 220 225 230 232 236 240 241 243 245 248 250 252 253 256 258 259 260 259 258 258 257 258 258 259 262 264 264 264 265 265 263 260 260 261 263 265 267 272 281 286
202 204 200 200 204 205 208 207 199 199 211 220 222 219 220 233 244 237 219 205 199 200 198 198 202 204 204 209 217 220 216 215 222 225 225 229 235 237 239 244 245 246 247 249 252 253 255 257 258 259 260 260 259 258 258 257 258 257 259 261 263 263 263 263 262 259 257 257 258 260 261 266 275 282
205 204 202 203 205 204 203 197 185 182 190 204 206 206 221 238 231 216 211 203 195 195 196 198 201 202 204 208 211 213 214 217 227 231 228 233 241 244 244 248 251 251 250 252 253 254 256 257 259 259 260 260 260 259 258 257 257 257 257 258 260 261 261 261 260 258 257 256 255 256 258 262 270 279
196 197 200 200 199 198 193 181 174 172 160 158 171 178 202 227 207 202 205 203 194 189 189 195 199 200 207 213 213 214 221 227 232 233 229 233 242 247 248 254 258 256 254 253 254 257 258 258 259 260 260 262 262 261 260 259 257 257 257 258 259 259 260 259 258 257 256 254 253 254 255 259 268 278
186 190 191 187 184 186 180 169 166 167 158 145 139 131 117 126 168 184 188 188 187 183 178 183 193 198 205 214 215 217 225 232 236 237 236 237 242 244 246 253 260 262 261 256 254 259 263 261 260 260 261 261 261 261 261 260 259 258 258 259 259 259 258 258 257 256 254 251 251 252 253 256 263 273
183 183 177 169 164 161 158 155 154 152 148 141 135 127 121 120 127 140 147 152 157 159 152 147 156 171 177 172 177 194 210 230 240 242 243 243 245 246 246 250 259 267 272 264 256 258 262 261 259 260 261 261 262 261 261 260 259 259 259 260 261 260 259 257 255 254 252 249 248 248 250 252 258 268
175 172 166 158 150 146 145 144 142 140 139 140 138 134 131 130 128 130 135 136 136 140 143 136 128 129 135 135 138 169 237 263 259 244 241 242 242 243 245 252 263 270 279 276 260 256 260 261 259 260 262 263 264 265 265 264 261 259 260 261 261 261 260 258 256 253 250 247 245 245 245 247 253 263
161 158 155 149 141 140 140 138 137 137 138 141 141 137 134 133 133 134 134 131 129 128 131 129 123 118 112 108 113 262 285 295 296 287 279 276 270 265 265 272 279 281 285 286 269 257 263 267 264 265 268 269 268 268 269 269 267 266 265 263 261 261 261 259 256 253 250 246 242 241 241 243 249 257
151 148 146 142 137 134 131 129 131 133 135 137 136 134 133 130 131 132 124 115 107 96 92 93 93 88 65 39 13 330 315 315 314 310 307 305 303 301 299 295 293 292 293 293 276 261 269 274 269 270 276 276 273 271 268 267 267 268 268 267 267 267 268 268 262 255 250 245 240 237 237 238 245 250
140 139 139 138 136 133 129 126 128 129 131 133 128 126 126 123 121 120 108 95 81 64 52 40 28 13 350 334 325 321 315 311 312 310 306 306 309 315 315 308 304 303 303 304 290 273 274 277 272 275 281 279 274 273 270 267 265 266 268 271 272 272 274 275 270 259 249 242 236 232 232 237 245 244
130 129 131 134 135 134 128 124 127 129 132 131 122 118 120 118 117 113 101 89 65 25 355 343 336 327 322 314 309 312 313 314 314 313 313 314 318 323 323 312 307 306 305 307 302 287 281 283 280 281 283 280 276 275 273 270 267 268 271 271 268 266 265 268 267 259 246 237 229 223 224 229 231 226
126 123 123 126 130 129 122 120 126 130 134 132 117 108 107 99 78 51 25 327 306 305 303 306 311 315 318 318 315 316 319 321 319 318 323 322 320 326 325 311 309 311 311 317 312 292 287 291 290 287 285 283 279 277 276 274 270 271 273 270 266 265 263 264 264 255 243 234 225 220 222 214 200 195
122 121 119 117 117 115 110 108 111 110 112 107 83 56 42 45 36 19 357 337 326 318 316 319 319 321 327 329 327 327 330 337 338 338 345 341 334 339 337 325 320 316 316 334 325 298 294 299 298 293 290 288 284 283 283 281 278 276 273 269 268 266 265 264 260 248 236 227 219 220 220 201 185 178
121 119 117 113 107 102 96 88 80 74 63 54 47 33 36 57 60 52 37 26 21 17 17 16 5 357 1 3 1 4 13 20 23 21 21 18 11 5 355 346 336 311 309 332 327 302 296 298 297 294 289 279 282 291 292 289 284 280 275 274 274 271 266 261 253 241 228 218 214 216 210 193 181 176
117 114 112 108 100 89 80 68 58 57 56 57 67 75 81 85 83 76 70 64 59 56 54 50 42 33 32 30 25 24 27 25 20 15 11 8 6 3 358 354 344 325 323 336 336 316 303 298 296 295 289 279 279 286 289 287 283 280 278 278 279 276 269 259 249 235 218 208 207 207 198 185 177 177
111 106 102 99 93 88 88 88 86 88 91 94 97 95 93 92 88 85 83 77 69 67 64 58 50 43 38 33 26 22 21 16 6 360 354 348 346 346 345 346 342 331 327 331 333 325 313 306 302 297 290 285 284 283 284 283 282 280 279 277 276 273 267 256 243 224 205 200 200 197 188 180 178 182
104 102 101 100 100 102 104 105 106 106 106 107 105 101 99 97 94 93 88 78 71 69 64 56 50 44 38 33 27 21 16 7 355 347 341 335 332 329 326 326 327 325 324 325 326 323 312 307 307 301 292 288 287 285 285 283 281 281 283 280 276 270 262 250 236 216 201 196 193 189 184 184 187 188
101 105 107 107 107 108 107 105 104 102 100 100 99 98 99 97 93 89 81 74 70 64 57 51 46 38 30 23 17 9 2 353 341 331 325 321 321 319 317 316 315 317 319 320 320 319 311 305 305 304 297 291 285 282 284 284 283 284 285 281 274 266 256 242 226 210 198 193 191 189 189 190 190 188
111 112 113 112 110 109 108 106 102 96 93 94 94 93 92 88 83 80 77 73 67 59 52 45 36 26 17 9 1 352 343 336 329 324 319 316 314 312 311 310 309 312 318 320 319 320 317 310 306 303 300 294 284 278 280 282 284 286 283 275 269 266 257 237 218 203 195 193 195 198 200 197 192 191
111 113 114 114 111 109 107 105 100 95 93 94 91 87 83 79 74 70 66 61 55 49 42 32 23 14 3 353 344 335 330 329 328 328 325 321 318 317 315 311 308 310 316 322 325 324 319 312 306 300 296 295 289 285 283 280 280 284 282 270 261 263 255 230 210 200 198 199 201 205 208 205 202 201
110 112 113 112 111 107 103 99 95 92 90 88 84 79 74 70 66 61 57 54 48 41 30 20 11 1 350 343 337 334 334 337 339 340 338 335 333 329 324 317 314 316 319 323 329 330 320 306 298 292 291 294 296 295 292 282 275 278 281 268 250 244 244 219 202 200 206 207 206 210 212 212 212 211
112 113 112 110 107 103 98 95 91 88 86 84 82 78 75 71 66 61 55 49 41 31 20 11 4 358 353 352 352 352 354 358 360 359 359 355 349 343 336 328 323 323 325 326 330 332 323 304 289 285 289 294 296 296 292 285 277 272 273 264 243 234 240 219 202 203 210 212 212 217 216 209 207 207
116 113 108 104 100 97 93 90 87 85 84 83 79 75 69 61 54 48 42 35 28 21 14 12 12 12 13 15 17 16 15 17 17 14 12 8 0 353 347 336 328 326 328 329 331 333 328 310 290 287 295 296 295 292 283 276 275 269 260 249 232 228 233 221 205 205 210 210 209 206 195 189 191 197
115 108 101 95 92 90 88 86 85 84 82 79 75 69 61 52 46 41 36 32 29 26 29 33 36 36 37 35 33 30 27 26 24 21 18 15 9 3 356 343 335 331 329 329 332 335 332 314 295 290 292 288 287 290 281 271 274 270 256 243 233 227 226 218 209 208 210 206 195 179 170 175 184 193
107 103 99 94 92 90 88 86 86 85 84 80 74 65 58 52 44 38 38 40 44 47 51 53 53 51 48 45 41 37 33 29 26 23 20 18 15 10 4 355 348 344 338 333 336 341 338 318 299 290 286 281 277 282 284 280 283 279 260 244 233 225 217 211 205 199 192 185 177 166 161 170 183 191
104 103 101 97 95 94 92 90 88 87 86 82 73 62 55 51 45 45 51 56 58 57 56 55 53 49 45 41 39 37 34 30 27 24 21 19 16 13 11 8 5 1 355 348 346 347 341 324 310 301 295 290 284 281 288 294 304 297 267 230 202 190 183 178 177 172 165 165 169 170 172 179 186 191
105 104 103 102 101 100 97 94 91 88 85 79 70 60 57 58 60 63 65 64 61 58 55 51 48 44 39 36 34 33 33 33 31 28 24 21 18 18 18 19 21 22 21 19 16 12 5 351 343 340 326 308 296 293 299 304 320 309 249 199 169 157 154 153 151 150 151 156 167 180 185 186 187 188
107 106 104 105 106 104 98 93 90 88 82 74 68 65 67 72 74 71 69 65 61 58 54 49 45 41 38 36 33 30 30 30 31 31 30 26 22 22 24 27 30 35 38 38 37 36 36 34 28 22 15 1 333 315 316 327 359 15 196 178 160 150 149 146 142 143 150 156 160 166 172 176 180 188
107 106 106 106 105 101 96 93 91 88 81 72 68 72 78 79 77 73 69 66 61 56 52 48 43 40 37 35 35 33 33 32 31 31 31 30 27 26 28 31 33 35 35 34 33 33 33 30 22 16 16 14 359 329 313 336 53 87 141 157 152 148 145 143 144 151 157 159 158 156 157 167 190 210
105 104 106 107 103 98 97 98 96 91 83 74 75 82 84 81 78 74 70 66 62 57 52 48 44 41 38 36 35 34 33 34 32 30 30 31 30 26 26 29 31 31 29 26 24 21 20 17 8 359 360 9 16 16 65 135 113 104 125 144 149 148 140 135 161 164 158 158 165 160 146 156 186 197
102 103 106 108 107 103 102 104 103 97 88 81 82 85 84 78 74 72 68 65 62 58 53 50 46 43 41 38 35 33 33 32 31 29 29 29 29 26 23 23 23 23 21 17 11 8 5 360 351 342 335 337 356 9 34 160 141 118 127 136 136 139 131 120 139 153 150 147 146 136 129 146 182 188
98 109 113 110 110 112 110 109 107 101 93 86 81 80 79 74 69 65 63 61 59 56 52 49 46 42 41 39 35 33 33 32 31 29 27 27 28 26 22 20 19 19 17 11 5 2 358 345 335 332 326 324 331 335 317 273 215 165 146 138 132 133 133 126 117 112 115 121 122 121 131 158 185 199
95 115 122 116 113 116 114 109 106 100 93 87 81 77 75 69 61 55 52 48 46 44 42 40 37 35 34 33 31 30 29 28 26 25 23 23 24 21 18 19 20 18 16 11 7 8 7 358 350 348 350 355 0 356 338 306 257 237 272 197 162 147 131 118 105 90 94 115 119 113 123 143 170 212
88 111 127 124 116 113 111 107 104 100 92 88 86 81 73 63 54 51 47 40 37 39 38 34 31 29 26 23 21 20 20 18 15 13 12 14 15 14 15 18 22 22 18 13 11 14 16 11 9 11 14 12 7 1 356 343 267 235 304 221 173 163 139 104 92 89 110 132 133 124 116 106 93 159
92 111 125 126 117 111 109 103 101 100 96 94 95 91 80 71 68 65 56 49 47 46 42 37 32 30 31 29 22 15 13 11 9 6 5 5 5 9 14 19 22 22 20 16 15 17 18 20 24 24 19 13 5 358 5 17 6 233 280 327 225 204 194 73 16 155 154 156 160 164 168 153 73 74